Regional Weather Roundup
Issued by NWS

Home | Current Version | Previous Version | Graphics & Text | Print | Product List | Glossary On
Versions: 1 2 3 4 5 6 7 8 9 10 11 12 13 14 15 16 17 18 19 20 21 22 23 24 25 26 27 28 29 30 31 32 33 34 35 36 37 38 39 40 41 42 43 44 45 46 47 48 49 50
000
ASUS44 KMEG 241710
RWRTN
TENNESSEE HOURLY STATE WEATHER ROUNDUP
NATIONAL WEATHER SERVICE MEMPHIS TN
1200 PM CDT FRI MAR 24 2017

TNZ002-004-019-021-049-052-054-088>092-241800-
WEST TENNESSEE

CITY           SKY/WX    TMP DP  RH WIND       PRES   REMARKS
MEMPHIS INTL   CLOUDY    73  59  61 S18G25    30.18S
NWS MEMPHIS      N/A     72 N/A N/A MISG        N/A
JACKSON        PTSUNNY   71  57  61 S18G25    30.22F
DYERSBURG      CLOUDY    70  59  68 S9G22     30.19F
SOMERVILLE     CLOUDY    72  59  64 S14       30.20S
BOLIVAR        CLOUDY    70  57  64 SE14      30.22S
PARIS          PTSUNNY   70  55  60 S13       30.22F
HUNTINGDON     CLOUDY    72  57  60 S14G25    30.21F
SAVANNAH       CLOUDY    70  55  60 S13G23    30.24F
$$

TNZ008-025-027-028-033-062-065-066-241800-
NORTH MIDDLE TENNESSEE

CITY           SKY/WX    TMP DP  RH WIND       PRES   REMARKS
NASHVILLE      PTSUNNY   72  53  51 S21G31    30.28F
PORTLAND       SUNNY     72  54  53 SW22G33   30.26F
CLARKSVILLE    MOSUNNY   73  53  49 S17G26    30.22F
SMYRNA         PTSUNNY   72  54  53 S16       30.28F
COOKEVILLE     CLOUDY    68  50  52 SW14G21   30.30F
GALLATIN       MOSUNNY   72  54  53 S9G22     30.30F
CROSSVILLE     SUNNY     62  46  55 S9G22     30.36S
$$

TNZ061-075-076-078-094-096-097-241800-
SOUTH MIDDLE TENNESSEE

CITY           SKY/WX    TMP DP  RH WIND       PRES   REMARKS
FAYETTEVILLE   PTSUNNY   70  54  56 S15G25    30.32R
TULLAHOMA      PTSUNNY   66  48  52 S9        30.33S
WINCHESTER     SUNNY     70  52  52 S13       30.33S
MCMINNVILLE    PTSUNNY   70  52  52 S13       30.32S
COLUMBIA       PTSUNNY   70  55  60 S17       30.26F
SHELBYVILLE    CLOUDY    70  55  60 S15       30.32S
$$

TNZ017-018-042-046-047-241800-
NORTHEAST TENNESSEE

CITY           SKY/WX    TMP DP  RH WIND       PRES   REMARKS
TRI CITIES     CLOUDY    67  43  41 SW5       30.36F
ELIZABETHTON   PTSUNNY   68  41  37 CALM      30.36F
$$

TNZ012-013-036-069-073-074-241800-
CENTRAL EAST TENNESSEE

CITY           SKY/WX    TMP DP  RH WIND       PRES   REMARKS
KNOXVILLE      PTSUNNY   68  46  45 S13G22    30.35F
OAK RIDGE      PTSUNNY   69  44  40 SW10G20   30.37F
DOWNTOWN KNOXV PTSUNNY   70  48  46 W12G18    30.36F
GATLINBURG     SUNNY     68  43  40 CALM      30.35F
MORRISTOWN     CLOUDY    66  43  42 VRB5      30.36F
JACKSBORO      MOSUNNY   68  45  42 S14       30.37F
$$

TNZ083-085-099-241800-
SOUTHEAST TENNESSEE

CITY           SKY/WX    TMP DP  RH WIND       PRES   REMARKS
CHATTANOOGA    PTSUNNY   65  47  52 S13G22    30.37F
$$

SKY/WX REPORTED AS FAIR MEANS FEW OR NO CLOUDS BELOW
12 THOUSAND FEET.





USA.gov is the U.S. government's official web portal to all federal, state and local government web resources and services.